N3368K KPUB-KTEX

Flight info

Callsign N3368K
Flight time 0h 46m
Altitude 30000
Route FLOOD J28 HBU
Aircraft SF50/L-SDGRWY/L

Departure

Time 2026-05-06 13:35
Airport Pueblo Memorial Airport (KPUB)

Arrival

Time 2026-05-06 14:21
Airport Telluride Regional Airport (KTEX)
Time Latitude Longitude Altitude Speed Heading
2026-05-06 13:29 38.28399 -104.49833 4669 ft 0 kts 355°
2026-05-06 13:31 38.28421 -104.49840 4670 ft 5 kts 332°
2026-05-06 13:31 38.28449 -104.49887 4671 ft 8 kts 283°
2026-05-06 13:32 38.28451 -104.49980 4672 ft 13 kts 270°
2026-05-06 13:32 38.28436 -104.50100 4670 ft 15 kts 219°
2026-05-06 13:32 38.28321 -104.50129 4660 ft 20 kts 216°
2026-05-06 13:32 38.28236 -104.50214 4649 ft 0 kts 218°
2026-05-06 13:33 38.28229 -104.50222 4649 ft 6 kts 215°
2026-05-06 13:33 38.28183 -104.50295 4642 ft 14 kts 270°
2026-05-06 13:34 38.28208 -104.50329 4638 ft 0 kts 355°
2026-05-06 13:34 38.28341 -104.50333 4655 ft 47 kts 359°
2026-05-06 13:34 38.28847 -104.50358 4686 ft 99 kts 360°
2026-05-06 13:35 38.29626 -104.50417 4935 ft 124 kts 356°
2026-05-06 13:35 38.30570 -104.50556 5218 ft 148 kts 355°
2026-05-06 13:35 38.31679 -104.50719 5546 ft 171 kts 355°
2026-05-06 13:35 38.32798 -104.51375 5863 ft 195 kts 313°
2026-05-06 13:36 38.33232 -104.53015 6415 ft 199 kts 276°
2026-05-06 13:36 38.33265 -104.54801 6938 ft 204 kts 269°
2026-05-06 13:36 38.33263 -104.56611 7516 ft 204 kts 271°
2026-05-06 13:36 38.33292 -104.58432 8095 ft 205 kts 272°
2026-05-06 13:37 38.33326 -104.60234 8660 ft 207 kts 272°
2026-05-06 13:37 38.33354 -104.62068 9253 ft 208 kts 272°
2026-05-06 13:37 38.33384 -104.63916 9854 ft 208 kts 272°
2026-05-06 13:37 38.33412 -104.65743 10397 ft 209 kts 272°
2026-05-06 13:38 38.33438 -104.67596 10928 ft 208 kts 271°
2026-05-06 13:38 38.33467 -104.69402 11474 ft 205 kts 271°
2026-05-06 13:38 38.33491 -104.71219 11973 ft 206 kts 270°
2026-05-06 13:38 38.33519 -104.73054 12429 ft 208 kts 270°
2026-05-06 13:39 38.33545 -104.74895 12909 ft 208 kts 270°
2026-05-06 13:39 38.33573 -104.76739 13380 ft 208 kts 269°
2026-05-06 13:39 38.33600 -104.78584 13867 ft 208 kts 269°
2026-05-06 13:39 38.33625 -104.80425 14280 ft 208 kts 269°
2026-05-06 13:40 38.33651 -104.82274 14711 ft 208 kts 270°
2026-05-06 13:40 38.33677 -104.84098 15116 ft 208 kts 270°
2026-05-06 13:40 38.33701 -104.85939 15509 ft 208 kts 270°
2026-05-06 13:40 38.33726 -104.87791 15910 ft 208 kts 270°
2026-05-06 13:41 38.33750 -104.89640 16295 ft 209 kts 271°
2026-05-06 13:41 38.33773 -104.91486 16682 ft 209 kts 271°
2026-05-06 13:41 38.33796 -104.93317 17047 ft 209 kts 271°
2026-05-06 13:41 38.33822 -104.95167 17405 ft 208 kts 272°
2026-05-06 13:42 38.33845 -104.97018 17740 ft 209 kts 272°
2026-05-06 13:42 38.33870 -104.98873 18085 ft 209 kts 272°
2026-05-06 13:42 38.33892 -105.00730 18411 ft 209 kts 272°
2026-05-06 13:42 38.33916 -105.02586 18687 ft 210 kts 272°
2026-05-06 13:43 38.33938 -105.04450 18968 ft 211 kts 272°
2026-05-06 13:43 38.33959 -105.06316 19284 ft 210 kts 272°
2026-05-06 13:43 38.33980 -105.08174 19606 ft 210 kts 272°
2026-05-06 13:43 38.34025 -105.10006 19902 ft 209 kts 275°
2026-05-06 13:44 38.34158 -105.11873 20040 ft 216 kts 275°
2026-05-06 13:44 38.34287 -105.13832 20047 ft 226 kts 275°
2026-05-06 13:44 38.34419 -105.15863 20109 ft 230 kts 275°
2026-05-06 13:44 38.34553 -105.17889 20148 ft 232 kts 275°
2026-05-06 13:45 38.34689 -105.19956 20154 ft 239 kts 275°
2026-05-06 13:45 38.34971 -105.24282 20168 ft 249 kts 275°
2026-05-06 13:45 38.35116 -105.26515 20151 ft 255 kts 274°
2026-05-06 13:46 38.35261 -105.28793 20140 ft 260 kts 274°
2026-05-06 13:46 38.35406 -105.31067 20145 ft 265 kts 274°
2026-05-06 13:46 38.35556 -105.33419 20147 ft 269 kts 274°
2026-05-06 13:46 38.35712 -105.35843 20148 ft 272 kts 274°
2026-05-06 13:47 38.35868 -105.38258 20123 ft 274 kts 274°
2026-05-06 13:47 38.36021 -105.40686 20124 ft 275 kts 274°
2026-05-06 13:47 38.36175 -105.43126 20120 ft 277 kts 274°
2026-05-06 13:47 38.36330 -105.45578 20122 ft 278 kts 274°
2026-05-06 13:48 38.36486 -105.48038 20132 ft 279 kts 274°
2026-05-06 13:48 38.36642 -105.50506 20108 ft 279 kts 274°
2026-05-06 13:48 38.36795 -105.52978 20110 ft 280 kts 274°
2026-05-06 13:48 38.36949 -105.55451 20111 ft 280 kts 274°
2026-05-06 13:49 38.37052 -105.57099 20113 ft 281 kts 274°
2026-05-06 13:49 38.37255 -105.60395 20109 ft 282 kts 274°
2026-05-06 13:49 38.37409 -105.62888 20111 ft 282 kts 274°
2026-05-06 13:49 38.37563 -105.65382 20067 ft 282 kts 274°
2026-05-06 13:50 38.37715 -105.67876 20068 ft 283 kts 274°
2026-05-06 13:50 38.37818 -105.69542 20067 ft 283 kts 274°
2026-05-06 13:50 38.37971 -105.72038 20068 ft 283 kts 274°
2026-05-06 13:50 38.38123 -105.74543 20071 ft 283 kts 274°
2026-05-06 13:51 38.38274 -105.77050 20068 ft 283 kts 274°
2026-05-06 13:51 38.38425 -105.79554 20029 ft 283 kts 274°
2026-05-06 13:51 38.38574 -105.82057 20030 ft 283 kts 274°
2026-05-06 13:51 38.38723 -105.84565 20031 ft 282 kts 274°
2026-05-06 13:52 38.38872 -105.87029 20033 ft 282 kts 274°
2026-05-06 13:52 38.39016 -105.89481 20035 ft 282 kts 274°
2026-05-06 13:52 38.39165 -105.91971 20032 ft 281 kts 274°
2026-05-06 13:52 38.39317 -105.94457 20023 ft 281 kts 274°
2026-05-06 13:53 38.39463 -105.96946 20028 ft 281 kts 274°
2026-05-06 13:53 38.39603 -105.99433 20031 ft 282 kts 274°
2026-05-06 13:53 38.39748 -106.01921 20033 ft 281 kts 274°
2026-05-06 13:53 38.39891 -106.04405 20032 ft 281 kts 274°
2026-05-06 13:54 38.40031 -106.06846 20021 ft 281 kts 274°
2026-05-06 13:54 38.40178 -106.09380 20020 ft 281 kts 274°
2026-05-06 13:54 38.40317 -106.11836 20021 ft 281 kts 274°
2026-05-06 13:54 38.40458 -106.14321 20023 ft 281 kts 274°
2026-05-06 13:55 38.40599 -106.16803 20015 ft 281 kts 274°
2026-05-06 13:55 38.40739 -106.19284 20010 ft 280 kts 274°
2026-05-06 13:55 38.40880 -106.21768 19993 ft 279 kts 274°
2026-05-06 13:55 38.41018 -106.24217 19988 ft 280 kts 274°
2026-05-06 13:56 38.41158 -106.26715 19990 ft 281 kts 274°
2026-05-06 13:56 38.41298 -106.29206 19983 ft 281 kts 274°
2026-05-06 13:56 38.41436 -106.31695 19980 ft 281 kts 274°
2026-05-06 13:56 38.41571 -106.34194 19970 ft 282 kts 274°
2026-05-06 13:57 38.41707 -106.36649 19945 ft 281 kts 275°
2026-05-06 13:57 38.41843 -106.39141 19949 ft 281 kts 274°
2026-05-06 13:57 38.41979 -106.41622 19935 ft 279 kts 274°
2026-05-06 13:57 38.42113 -106.44083 19926 ft 277 kts 274°
2026-05-06 13:58 38.42245 -106.46497 19918 ft 278 kts 274°
2026-05-06 13:58 38.42378 -106.48964 19892 ft 279 kts 274°
2026-05-06 13:58 38.42507 -106.51387 19897 ft 279 kts 274°
2026-05-06 13:58 38.42641 -106.53883 19897 ft 280 kts 274°
2026-05-06 13:59 38.42773 -106.56358 19894 ft 279 kts 274°
2026-05-06 13:59 38.42905 -106.58836 19894 ft 279 kts 274°
2026-05-06 13:59 38.43035 -106.61305 19893 ft 279 kts 274°
2026-05-06 13:59 38.43165 -106.63772 19885 ft 279 kts 274°
2026-05-06 14:00 38.43294 -106.66246 19882 ft 279 kts 274°
2026-05-06 14:00 38.43424 -106.68705 19883 ft 278 kts 274°
2026-05-06 14:00 38.43551 -106.71165 19874 ft 278 kts 275°
2026-05-06 14:00 38.43678 -106.73622 19877 ft 278 kts 275°
2026-05-06 14:01 38.43807 -106.76085 19879 ft 278 kts 275°
2026-05-06 14:01 38.43933 -106.78552 19877 ft 278 kts 274°
2026-05-06 14:01 38.44060 -106.81018 19879 ft 279 kts 274°
2026-05-06 14:01 38.44185 -106.83453 19879 ft 279 kts 274°
2026-05-06 14:02 38.44311 -106.85935 19878 ft 280 kts 274°
2026-05-06 14:02 38.44435 -106.88416 19969 ft 281 kts 274°
2026-05-06 14:02 38.44561 -106.90904 19970 ft 281 kts 274°
2026-05-06 14:02 38.44685 -106.93398 19970 ft 281 kts 274°
2026-05-06 14:03 38.44811 -106.95892 19969 ft 281 kts 274°
2026-05-06 14:03 38.44935 -106.98382 19968 ft 281 kts 274°
2026-05-06 14:03 38.45058 -107.00864 19964 ft 281 kts 274°
2026-05-06 14:03 38.45096 -107.03319 19958 ft 281 kts 268°
2026-05-06 14:04 38.44777 -107.05789 19946 ft 283 kts 259°
2026-05-06 14:04 38.44202 -107.08188 19941 ft 284 kts 256°
2026-05-06 14:04 38.43628 -107.10601 19939 ft 284 kts 257°
2026-05-06 14:04 38.43063 -107.13023 19932 ft 284 kts 257°
2026-05-06 14:05 38.42491 -107.15420 19928 ft 284 kts 256°
2026-05-06 14:05 38.41912 -107.17838 19916 ft 285 kts 256°
2026-05-06 14:05 38.41330 -107.20259 19912 ft 284 kts 257°
2026-05-06 14:05 38.40761 -107.22667 19902 ft 285 kts 257°
2026-05-06 14:06 38.40185 -107.25092 19893 ft 285 kts 257°
2026-05-06 14:06 38.39605 -107.27511 19887 ft 285 kts 256°
2026-05-06 14:06 38.39022 -107.29937 19877 ft 285 kts 256°
2026-05-06 14:06 38.38448 -107.32327 19872 ft 285 kts 257°
2026-05-06 14:07 38.37869 -107.34746 19861 ft 286 kts 256°
2026-05-06 14:07 38.37285 -107.37175 19865 ft 286 kts 256°
2026-05-06 14:07 38.36708 -107.39575 19867 ft 286 kts 256°
2026-05-06 14:07 38.36114 -107.42028 19856 ft 286 kts 257°
2026-05-06 14:08 38.35531 -107.44459 19864 ft 286 kts 257°
2026-05-06 14:08 38.34947 -107.46891 19856 ft 287 kts 257°
2026-05-06 14:08 38.34366 -107.49294 19855 ft 288 kts 257°
2026-05-06 14:08 38.33777 -107.51731 19860 ft 288 kts 257°
2026-05-06 14:09 38.33186 -107.54176 19861 ft 289 kts 257°
2026-05-06 14:09 38.32592 -107.56625 19859 ft 289 kts 257°
2026-05-06 14:09 38.31997 -107.59076 19857 ft 288 kts 257°
2026-05-06 14:09 38.31404 -107.61518 19858 ft 288 kts 257°
2026-05-06 14:10 38.30822 -107.63919 19864 ft 287 kts 257°
2026-05-06 14:10 38.30228 -107.66355 19864 ft 288 kts 257°
2026-05-06 14:10 38.29633 -107.68794 19865 ft 288 kts 257°
2026-05-06 14:10 38.29039 -107.71237 19865 ft 289 kts 257°
2026-05-06 14:11 38.28443 -107.73687 19868 ft 289 kts 257°
2026-05-06 14:11 38.27845 -107.76133 19854 ft 290 kts 257°
2026-05-06 14:11 38.27247 -107.78581 19856 ft 289 kts 257°
2026-05-06 14:11 38.26650 -107.81028 19857 ft 290 kts 257°
2026-05-06 14:12 38.26057 -107.83450 19934 ft 290 kts 257°
2026-05-06 14:12 38.25453 -107.85902 19932 ft 290 kts 257°
2026-05-06 14:12 38.24852 -107.88353 19929 ft 290 kts 257°
2026-05-06 14:12 38.24256 -107.90782 19925 ft 290 kts 257°
2026-05-06 14:13 38.23650 -107.93243 19923 ft 290 kts 257°
2026-05-06 14:13 38.23042 -107.95707 19894 ft 291 kts 257°
2026-05-06 14:13 38.22433 -107.98194 19595 ft 297 kts 257°
2026-05-06 14:13 38.21818 -108.00685 19200 ft 293 kts 257°
2026-05-06 14:14 38.21208 -108.03152 18809 ft 293 kts 257°
2026-05-06 14:14 38.20596 -108.05633 18413 ft 295 kts 257°
2026-05-06 14:14 38.19986 -108.08100 17995 ft 297 kts 256°
2026-05-06 14:14 38.19358 -108.10597 17574 ft 295 kts 255°
2026-05-06 14:15 38.18462 -108.12967 17124 ft 298 kts 243°
2026-05-06 14:15 38.17220 -108.15082 16730 ft 300 kts 233°
2026-05-06 14:15 38.15668 -108.16871 16336 ft 303 kts 222°
2026-05-06 14:15 38.13883 -108.18301 15933 ft 303 kts 215°
2026-05-06 14:16 38.12036 -108.19561 15547 ft 304 kts 207°
2026-05-06 14:16 38.09975 -108.20271 15145 ft 311 kts 194°
2026-05-06 14:16 38.07847 -108.20357 14740 ft 297 kts 180°
2026-05-06 14:16 38.05900 -108.19868 14365 ft 275 kts 167°
2026-05-06 14:17 38.04195 -108.18943 14028 ft 262 kts 155°
2026-05-06 14:17 38.02733 -108.17670 13694 ft 247 kts 143°
2026-05-06 14:17 38.01575 -108.16193 13346 ft 233 kts 131°
2026-05-06 14:17 38.00676 -108.14553 12991 ft 224 kts 120°
2026-05-06 14:18 38.00028 -108.12793 12722 ft 211 kts 110°
2026-05-06 14:18 37.99629 -108.11152 12631 ft 187 kts 104°
2026-05-06 14:18 37.99284 -108.09463 12340 ft 206 kts 104°
2026-05-06 14:18 37.98921 -108.07707 12009 ft 203 kts 105°
2026-05-06 14:19 37.98557 -108.05985 11680 ft 200 kts 105°
2026-05-06 14:19 37.98197 -108.04293 11365 ft 198 kts 105°
2026-05-06 14:19 37.97862 -108.02634 11071 ft 192 kts 104°
2026-05-06 14:19 37.97510 -108.01002 10733 ft 192 kts 107°
2026-05-06 14:20 37.97168 -107.99375 10458 ft 190 kts 105°
2026-05-06 14:20 37.96840 -107.97759 10338 ft 189 kts 107°
2026-05-06 14:20 37.96483 -107.96113 10012 ft 196 kts 107°
2026-05-06 14:20 37.96149 -107.94519 9651 ft 178 kts 106°
2026-05-06 14:21 37.95861 -107.93125 9306 ft 153 kts 107°
2026-05-06 14:21 37.95596 -107.91863 9079 ft 135 kts 109°
2026-05-06 14:21 37.95386 -107.90872 9021 ft 100 kts 109°
2026-05-06 14:21 37.95295 -107.90459 9038 ft 20 kts 105°
2026-05-06 14:22 37.95264 -107.90311 9042 ft 16 kts 103°
2026-05-06 14:22 37.95241 -107.90184 9047 ft 14 kts 92°
2026-05-06 14:22 37.95293 -107.90127 9051 ft 10 kts 17°
2026-05-06 14:22 37.95359 -107.90152 9052 ft 11 kts 333°
2026-05-06 14:23 37.95392 -107.90190 9052 ft 0 kts 272°